,,Stat6,,Stat2,,Stat8,,Stat9,,Stat10,,Wind1,,Wind1,
time,status,PA1M_AVG,status,PR1M_SUM,status,RH1M_AVG,status,SR1M_AVG,status,TA1M_AVG,status,W1dAve1m,status,W1sAve1m,
2005-06-22, 00:00:00,VALID,919.028,VALID,0,VALID,81.9117,VALID,-0.0339617,VALID,17.6961,VALID,117,VALID,0.941939,
2005-06-22, 00:01:00,VALID,919.023,VALID,0,VALID,81.7057,VALID,0,VALID,17.6703,VALID,111,VALID,1.22935,
2005-06-22, 00:02:00,VALID,919.029,VALID,0,VALID,82.194,VALID,-0.0169808,VALID,17.6675,VALID,94,VALID,0.963481,
2005-06-22, 00:03:00,VALID,919.021,VALID,0,VALID,82.8476,VALID,-0.0509425,VALID,17.5995,VALID,97,VALID,0.89668,
2005-06-22, 00:04:00,VALID,918.996,VALID,0,VALID,83.1108,VALID,-0.0339617,VALID,17.4837,VALID,103,VALID,0.935902,
2005-06-22, 00:05:00,VALID,919.005,VALID,0,VALID,83.6652,VALID,-0.0169808,VALID,17.4088,VALID,109,VALID,0.673921,
2005-06-22, 00:06:00,VALID,918.993,VALID,0,VALID,84.6164,VALID,-0.0509425,VALID,17.3613,VALID,85,VALID,0.532366,
2005-06-22, 00:07:00,VALID,918.986,VALID,0,VALID,85.8664,VALID,0,VALID,17.164,VALID,59,VALID,0.533854,
2005-06-22, 00:08:00,VALID,918.962,VALID,0,VALID,86.5569,VALID,-0.0339617,VALID,16.948,VALID,72,VALID,0.781428,
2005-06-22, 00:09:00,VALID,918.948,VALID,0,VALID,86.8938,VALID,-0.0339617,VALID,16.845,VALID,73,VALID,0.908854,
2005-06-22, 00:10:00,VALID,918.931,VALID,0,VALID,87.0019,VALID,-0.0509425,VALID,16.8058,VALID,78,VALID,0.884681,
2005-06-22, 00:11:00,VALID,918.933,VALID,0,VALID,87.0057,VALID,-0.0509425,VALID,16.7929,VALID,76,VALID,0.720238,
2005-06-22, 00:12:00,VALID,918.917,VALID,0,VALID,86.6395,VALID,-0.0339617,VALID,16.8123,VALID,84,VALID,0.980114,
2005-06-22, 00:13:00,VALID,918.894,VALID,0,VALID,86.45,VALID,-0.0339617,VALID,16.8871,VALID,81,VALID,1.06045,
2005-06-22, 00:14:00,VALID,918.889,VALID,0,VALID,86.52,VALID,-0.0679233,VALID,16.9033,VALID,62,VALID,1.01799,
2005-06-22, 00:15:00,VALID,918.881,VALID,0,VALID,86.3242,VALID,-0.0339617,VALID,16.8839,VALID,60,VALID,0.989462,
2005-06-22, 00:16:00,VALID,918.883,VALID,0,VALID,85.8308,VALID,-0.0339617,VALID,16.9129,VALID,73,VALID,1.09766,
2005-06-22, 00:17:00,VALID,918.863,VALID,0,VALID,85.4607,VALID,-0.0679233,VALID,17.0128,VALID,76,VALID,0.998365,
2005-06-22, 00:18:00,VALID,918.855,VALID,0,VALID,85.3336,VALID,-0.0509425,VALID,17.1066,VALID,77,VALID,0.902158,
2005-06-22, 00:19:00,VALID,918.853,VALID,0,VALID,85.0856,VALID,-0.0339617,VALID,17.2066,VALID,90,VALID,1.02326,
2005-06-22, 00:20:00,VALID,918.816,VALID,0,VALID,85.0932,VALID,0,VALID,17.3062,VALID,93,VALID,1.33994,
2005-06-22, 00:21:00,VALID,918.804,VALID,0,VALID,84.4968,VALID,0,VALID,17.474,VALID,85,VALID,1.27148,
2005-06-22, 00:22:00,VALID,918.799,VALID,0,VALID,83.8776,VALID,0,VALID,17.6419,VALID,77,VALID,1.10976,
2005-06-22, 00:23:00,VALID,918.801,VALID,0,VALID,83.257,VALID,-0.0169808,VALID,17.7876,VALID,82,VALID,0.934201,
2005-06-22, 00:24:00,VALID,918.807,VALID,0,VALID,82.976,VALID,0,VALID,17.8489,VALID,85,VALID,0.674306,
2005-06-22, 00:25:00,VALID,918.804,VALID,0,VALID,82.9391,VALID,0,VALID,17.8779,VALID,87,VALID,0.780248,
2005-06-22, 00:26:00,VALID,918.799,VALID,0,VALID,82.9226,VALID,-0.0169808,VALID,17.8648,VALID,95,VALID,0.879972,
2005-06-22, 00:27:00,VALID,918.795,VALID,0,VALID,82.9277,VALID,0,VALID,17.8448,VALID,99,VALID,0.985085,
2005-06-22, 00:28:00,VALID,918.779,VALID,0,VALID,83.0116,VALID,0,VALID,17.8323,VALID,110,VALID,0.866071,
2005-06-22, 00:29:00,VALID,918.768,VALID,0,VALID,82.9353,VALID,0,VALID,17.8005,VALID,116,VALID,0.777435,
2005-06-22, 00:30:00,VALID,918.751,VALID,0,VALID,82.9709,VALID,0,VALID,17.7906,VALID,116,VALID,0.64027,
2005-06-22, 00:31:00,VALID,918.758,VALID,0,VALID,83.1248,VALID,0,VALID,17.7551,VALID,116,VALID,0.591933,
2005-06-22, 00:32:00,VALID,918.732,VALID,0,VALID,83.1769,VALID,-0.0169808,VALID,17.6937,VALID,110,VALID,0.653472,
2005-06-22, 00:33:00,VALID,918.724,VALID,0,VALID,83.669,VALID,0,VALID,17.6488,VALID,88,VALID,0.745164,
2005-06-22, 00:34:00,VALID,918.707,VALID,0,VALID,83.5444,VALID,0,VALID,17.6004,VALID,87,VALID,0.71317,
2005-06-22, 00:35:00,VALID,918.686,VALID,0,VALID,83.2532,VALID,0,VALID,17.5907,VALID,87,VALID,0.697917,
2005-06-22, 00:36:00,VALID,918.656,VALID,0,VALID,82.901,VALID,0,VALID,17.6294,VALID,87,VALID,0.768973,
2005-06-22, 00:37:00,VALID,918.65,VALID,0,VALID,82.9646,VALID,-0.0169808,VALID,17.6684,VALID,87,VALID,0.537609,
2005-06-22, 00:38:00,VALID,918.658,VALID,0,VALID,83.4287,VALID,-0.0169808,VALID,17.6232,VALID,82,VALID,0.541061,
2005-06-22, 00:39:00,VALID,918.645,VALID,0,VALID,84.3404,VALID,-0.0169808,VALID,17.468,VALID,71,VALID,0.700299,
2005-06-22, 00:40:00,VALID,918.637,VALID,0,VALID,84.8567,VALID,-0.0169808,VALID,17.2716,VALID,69,VALID,0.841206,
2005-06-22, 00:41:00,VALID,918.637,VALID,0,VALID,83.8293,VALID,0,VALID,17.2098,VALID,72,VALID,0.936285,
2005-06-22, 00:42:00,VALID,918.66,VALID,0,VALID,82.8476,VALID,-0.0509425,VALID,17.3002,VALID,78,VALID,0.722565,
2005-06-22, 00:43:00,VALID,918.653,VALID,0,VALID,82.4191,VALID,-0.0509425,VALID,17.4228,VALID,78,VALID,0.653274,
2005-06-22, 00:44:00,VALID,918.637,VALID,0,VALID,81.9981,VALID,0,VALID,17.4975,VALID,78,VALID,0.726758,
2005-06-22, 00:45:00,VALID,918.639,VALID,0,VALID,81.3585,VALID,-0.0169808,VALID,17.5128,VALID,84,VALID,0.88316,
2005-06-22, 00:46:00,VALID,918.637,VALID,0,VALID,81.3089,VALID,0,VALID,17.5455,VALID,98,VALID,0.816778,
2005-06-22, 00:47:00,VALID,918.619,VALID,0,VALID,80.4328,VALID,-0.0339617,VALID,17.5618,VALID,99,VALID,0.90904,
2005-06-22, 00:48:00,VALID,918.594,VALID,0,VALID,80.2599,VALID,-0.0339617,VALID,17.61,VALID,99,VALID,0.610899,
2005-06-22, 00:49:00,VALID,918.562,VALID,0,VALID,80.2357,VALID,-0.0509425,VALID,17.6423,VALID,104,VALID,1.03525,
2005-06-22, 00:50:00,VALID,918.537,VALID,0,VALID,80.2281,VALID,-0.0339617,VALID,17.6488,VALID,107,VALID,1.15153,
2005-06-22, 00:51:00,VALID,918.535,VALID,0,VALID,80.71,VALID,0,VALID,17.6421,VALID,109,VALID,0.706948,
2005-06-22, 00:52:00,VALID,918.528,VALID,0,VALID,80.8626,VALID,-0.0169808,VALID,17.6169,VALID,110,VALID,0.53452,
2005-06-22, 00:53:00,VALID,918.493,VALID,0,VALID,81.2988,VALID,-0.0169808,VALID,17.5778,VALID,111,VALID,0.540879,
2005-06-22, 00:54:00,VALID,918.456,VALID,0,VALID,82.2054,VALID,-0.0339617,VALID,17.5003,VALID,111,VALID,0.771949,
2005-06-22, 00:55:00,VALID,918.455,VALID,0,VALID,82.3618,VALID,-0.0169808,VALID,17.3876,VALID,119,VALID,0.787287,
2005-06-22, 00:56:00,VALID,918.442,VALID,0,VALID,82.6874,VALID,0,VALID,17.3198,VALID,121,VALID,0.890625,
2005-06-22, 00:57:00,VALID,918.44,VALID,0,VALID,82.2398,VALID,0,VALID,17.2808,VALID,120,VALID,0.926711,
2005-06-22, 00:58:00,VALID,918.4,VALID,0,VALID,81.1055,VALID,-0.0169808,VALID,17.3262,VALID,119,VALID,1.02077,
2005-06-22, 00:59:00,VALID,918.404,VALID,0,VALID,80.7431,VALID,0,VALID,17.4484,VALID,110,VALID,1.01842,
2005-06-22, 01:00:00,VALID,918.381,VALID,0,VALID,80.2408,VALID,0,VALID,17.5554,VALID,119,VALID,0.811632,
2005-06-22, 01:01:00,VALID,918.366,VALID,0,VALID,80.4506,VALID,0,VALID,17.6329,VALID,124,VALID,0.493019,
2005-06-22, 01:02:00,VALID,918.361,VALID,0,VALID,80.5333,VALID,-0.0169808,VALID,17.6585,VALID,127,VALID,0.491987,
2005-06-22, 01:03:00,VALID,918.35,VALID,0,VALID,80.1556,VALID,-0.0169808,VALID,17.649,VALID,127,VALID,0.62686,
2005-06-22, 01:04:00,VALID,918.318,VALID,0,VALID,79.9445,VALID,0.0339617,VALID,17.6423,VALID,124,VALID,1.03739,
2005-06-22, 01:05:00,VALID,918.292,VALID,0,VALID,79.6215,VALID,0,VALID,17.694,VALID,112,VALID,1.07832,
2005-06-22, 01:06:00,VALID,918.279,VALID,0,VALID,79.7678,VALID,-0.0169808,VALID,17.7262,VALID,111,VALID,0.721528,
2005-06-22, 01:07:00,VALID,918.262,VALID,0,VALID,80.1403,VALID,-0.0339617,VALID,17.7101,VALID,112,VALID,0.5242,
2005-06-22, 01:08:00,VALID,918.247,VALID,0,VALID,80.1823,VALID,-0.0509425,VALID,17.655,VALID,124,VALID,0.674237,
2005-06-22, 01:09:00,VALID,918.238,VALID,0,VALID,80.2611,VALID,-0.0169808,VALID,17.6361,VALID,127,VALID,0.728924,
2005-06-22, 01:10:00,VALID,918.22,VALID,0,VALID,80.387,VALID,-0.0169808,VALID,17.6133,VALID,126,VALID,0.846128,
2005-06-22, 01:11:00,VALID,918.196,VALID,0,VALID,81.0508,VALID,0,VALID,17.6004,VALID,120,VALID,1.04021,
2005-06-22, 01:12:00,VALID,918.19,VALID,0,VALID,81.8252,VALID,-0.0169808,VALID,17.5457,VALID,121,VALID,0.751715,
2005-06-22, 01:13:00,VALID,918.169,VALID,0,VALID,82.4229,VALID,-0.0169808,VALID,17.4775,VALID,126,VALID,1.09847,
2005-06-22, 01:14:00,VALID,918.152,VALID,0,VALID,82.3224,VALID,-0.0339617,VALID,17.4715,VALID,115,VALID,1.08176,
2005-06-22, 01:15:00,VALID,918.125,VALID,0,VALID,82.6963,VALID,-0.0339617,VALID,17.4939,VALID,107,VALID,1.15498,
2005-06-22, 01:16:00,VALID,918.113,VALID,0,VALID,83.0218,VALID,-0.0169808,VALID,17.4842,VALID,112,VALID,1.03826,
2005-06-22, 01:17:00,VALID,918.103,VALID,0,VALID,83.2647,VALID,-0.0339617,VALID,17.4132,VALID,117,VALID,1.03049,
2005-06-22, 01:18:00,VALID,918.104,VALID,0,VALID,83.6258,VALID,0,VALID,17.323,VALID,126,VALID,1.01342,
2005-06-22, 01:19:00,VALID,918.095,VALID,0,VALID,84.301,VALID,-0.0509425,VALID,17.2651,VALID,133,VALID,1.35423,
2005-06-22, 01:20:00,VALID,918.105,VALID,0,VALID,84.6889,VALID,-0.0679233,VALID,17.2264,VALID,140,VALID,1.1915,
2005-06-22, 01:21:00,VALID,918.106,VALID,0,VALID,84.9483,VALID,0,VALID,17.2002,VALID,128,VALID,1.35156,
2005-06-22, 01:22:00,VALID,918.115,VALID,0,VALID,85.2369,VALID,0,VALID,17.1875,VALID,124,VALID,0.830078,
2005-06-22, 01:23:00,VALID,918.118,VALID,0,VALID,85.3298,VALID,-0.0339617,VALID,17.181,VALID,124,VALID,1.07924,
2005-06-22, 01:24:00,VALID,918.124,VALID,0,VALID,85.5917,VALID,0,VALID,17.155,VALID,127,VALID,1.35045,
2005-06-22, 01:25:00,VALID,918.12,VALID,0,VALID,85.7735,VALID,0,VALID,17.1356,VALID,119,VALID,0.959736,
2005-06-22, 01:26:00,VALID,918.123,VALID,0,VALID,85.888,VALID,-0.0169808,VALID,17.1227,VALID,120,VALID,0.903525,
2005-06-22, 01:27:00,VALID,918.135,VALID,0,VALID,85.8893,VALID,-0.0169808,VALID,17.1391,VALID,121,VALID,0.931504,
2005-06-22, 01:28:00,VALID,918.138,VALID,0,VALID,85.9109,VALID,0,VALID,17.1548,VALID,115,VALID,1.27474,
2005-06-22, 01:29:00,VALID,918.142,VALID,0,VALID,85.9579,VALID,0,VALID,17.1909,VALID,128,VALID,1.01321,
2005-06-22, 01:30:00,VALID,918.145,VALID,0,VALID,85.935,VALID,0,VALID,17.1969,VALID,131,VALID,1.07722,
2005-06-22, 01:31:00,VALID,918.135,VALID,0,VALID,85.8282,VALID,0,VALID,17.2264,VALID,131,VALID,1.13227,
2005-06-22, 01:32:00,VALID,918.107,VALID,0,VALID,85.5688,VALID,-0.0169808,VALID,17.2778,VALID,119,VALID,1.07584,
2005-06-22, 01:33:00,VALID,918.081,VALID,0,VALID,85.4989,VALID,0.0169808,VALID,17.3133,VALID,126,VALID,1.00469,
2005-06-22, 01:34:00,VALID,918.101,VALID,0,VALID,85.2687,VALID,-0.0679233,VALID,17.323,VALID,134,VALID,0.994978,
2005-06-22, 01:35:00,VALID,918.074,VALID,0,VALID,84.9381,VALID,-0.0169808,VALID,17.3781,VALID,125,VALID,1.10309,
2005-06-22, 01:36:00,VALID,918.062,VALID,0,VALID,84.7817,VALID,-0.0339617,VALID,17.4457,VALID,100,VALID,1.08612,
2005-06-22, 01:37:00,VALID,918.056,VALID,0,VALID,84.7003,VALID,-0.0169808,VALID,17.4719,VALID,94,VALID,0.987571,
2005-06-22, 01:38:00,VALID,918.075,VALID,0,VALID,84.9457,VALID,-0.0169808,VALID,17.4652,VALID,97,VALID,0.429688,
2005-06-22, 01:39:00,VALID,918.049,VALID,0,VALID,84.7181,VALID,-0.0339617,VALID,17.4295,VALID,99,VALID,0.967076,
2005-06-22, 01:40:00,VALID,918.04,VALID,0,VALID,84.3989,VALID,-0.0679233,VALID,17.4394,VALID,104,VALID,1.14211,
2005-06-22, 01:41:00,VALID,918.038,VALID,0,VALID,83.5648,VALID,-0.0339617,VALID,17.4911,VALID,103,VALID,1.24637,
2005-06-22, 01:42:00,VALID,918.041,VALID,0,VALID,82.887,VALID,-0.0339617,VALID,17.6363,VALID,101,VALID,1.20964,
2005-06-22, 01:43:00,VALID,918.04,VALID,0,VALID,82.7548,VALID,0,VALID,17.7587,VALID,94,VALID,1.08222,
2005-06-22, 01:44:00,VALID,918.046,VALID,0,VALID,82.8756,VALID,-0.0339617,VALID,17.8039,VALID,104,VALID,0.959484,
2005-06-22, 01:45:00,VALID,918.055,VALID,0,VALID,83.0994,VALID,-0.0169808,VALID,17.7876,VALID,116,VALID,0.439596,
2005-06-22, 01:46:00,VALID,918.039,VALID,0,VALID,83.3944,VALID,-0.0509425,VALID,17.743,VALID,127,VALID,0.783454,
2005-06-22, 01:47:00,VALID,918.014,VALID,0,VALID,83.6563,VALID,-0.152827,VALID,17.6662,VALID,123,VALID,1.11179,
2005-06-22, 01:48:00,VALID,917.994,VALID,0,VALID,83.725,VALID,-0.135847,VALID,17.6084,VALID,116,VALID,1.14027,
2005-06-22, 01:49:00,VALID,917.997,VALID,0,VALID,83.8102,VALID,-0.135847,VALID,17.5955,VALID,114,VALID,1.06101,
2005-06-22, 01:50:00,VALID,917.998,VALID,0,VALID,83.875,VALID,-0.118866,VALID,17.5664,VALID,127,VALID,0.698785,
2005-06-22, 01:51:00,VALID,917.978,VALID,0,VALID,83.8331,VALID,-0.118866,VALID,17.515,VALID,118,VALID,1.00977,
2005-06-22, 01:52:00,VALID,917.965,VALID,0,VALID,83.051,VALID,-0.101885,VALID,17.4793,VALID,118,VALID,1.21366,
2005-06-22, 01:53:00,VALID,917.965,VALID,0,VALID,82.7929,VALID,-0.118866,VALID,17.5016,VALID,133,VALID,1.01823,
2005-06-22, 01:54:00,VALID,917.955,VALID,0,VALID,82.8806,VALID,-0.118866,VALID,17.5443,VALID,134,VALID,0.974564,
2005-06-22, 01:55:00,VALID,917.95,VALID,0,VALID,82.4585,VALID,-0.135847,VALID,17.5277,VALID,121,VALID,1.04668,
2005-06-22, 01:56:00,VALID,917.956,VALID,0,VALID,82.5182,VALID,-0.169808,VALID,17.5798,VALID,116,VALID,0.874467,
2005-06-22, 01:57:00,VALID,917.959,VALID,0,VALID,82.1863,VALID,-0.169808,VALID,17.5961,VALID,125,VALID,0.778846,
2005-06-22, 01:58:00,VALID,917.962,VALID,0,VALID,82.2436,VALID,-0.152827,VALID,17.5985,VALID,123,VALID,0.656432,
2005-06-22, 01:59:00,VALID,917.939,VALID,0,VALID,82.0897,VALID,-0.152827,VALID,17.6187,VALID,123,VALID,0.992383,
2005-06-22, 02:00:00,VALID,917.916,VALID,0,VALID,82.4178,VALID,-0.135847,VALID,17.6258,VALID,125,VALID,0.81955,
2005-06-22, 02:01:00,VALID,917.914,VALID,0,VALID,82.5818,VALID,-0.118866,VALID,17.5729,VALID,112,VALID,0.735377,
2005-06-22, 02:02:00,VALID,917.9,VALID,0,VALID,82.784,VALID,0,VALID,17.5199,VALID,108,VALID,0.720796,
2005-06-22, 02:03:00,VALID,917.88,VALID,0,VALID,82.901,VALID,0,VALID,17.4846,VALID,108,VALID,0.765625,
2005-06-22, 02:04:00,VALID,917.87,VALID,0,VALID,82.4903,VALID,0,VALID,17.4809,VALID,108,VALID,0.778201,
2005-06-22, 02:05:00,VALID,917.863,VALID,0,VALID,82.522,VALID,0,VALID,17.5494,VALID,108,VALID,0.728125,
2005-06-22, 02:06:00,VALID,917.839,VALID,0,VALID,82.7344,VALID,0,VALID,17.5522,VALID,108,VALID,0.707031,
2005-06-22, 02:07:00,VALID,917.838,VALID,0,VALID,82.887,VALID,0.0339617,VALID,17.5167,VALID,108,VALID,0.737695,
2005-06-22, 02:08:00,VALID,917.832,VALID,0,VALID,82.873,VALID,0,VALID,17.4911,VALID,108,VALID,0.813672,
2005-06-22, 02:09:00,VALID,917.828,VALID,0,VALID,82.9315,VALID,0,VALID,17.4779,VALID,108,VALID,0.490189,
2005-06-22, 02:10:00,VALID,917.842,VALID,0,VALID,83.1985,VALID,-0.0169808,VALID,17.442,VALID,109,VALID,0.448583,
2005-06-22, 02:11:00,VALID,917.84,VALID,0,VALID,83.4783,VALID,0,VALID,17.4039,VALID,111,VALID,0.431996,
2005-06-22, 02:12:00,VALID,917.834,VALID,0,VALID,83.7288,VALID,0,VALID,17.3325,VALID,111,VALID,0.395531,
2005-06-22, 02:13:00,VALID,917.832,VALID,0,VALID,83.8763,VALID,0,VALID,17.291,VALID,111,VALID,0.391897,
2005-06-22, 02:14:00,VALID,917.823,VALID,0,VALID,83.8928,VALID,-0.0169808,VALID,17.2843,VALID,111,VALID,0.383185,
2005-06-22, 02:15:00,VALID,917.828,VALID,0,VALID,83.6576,VALID,0,VALID,17.2873,VALID,111,VALID,0.406795,
2005-06-22, 02:16:00,VALID,917.825,VALID,0,VALID,83.0205,VALID,-0.0169808,VALID,17.3617,VALID,111,VALID,0.363889,
2005-06-22, 02:17:00,VALID,917.82,VALID,0,VALID,82.7878,VALID,-0.0169808,VALID,17.4553,VALID,111,VALID,0.0829613,
2005-06-22, 02:18:00,VALID,917.808,VALID,0,VALID,82.6734,VALID,0,VALID,17.5197,VALID,111,VALID,0.00186012,
2005-06-22, 02:19:00,VALID,917.81,VALID,0,VALID,82.3771,VALID,0,VALID,17.5713,VALID,111,VALID,0,
2005-06-22, 02:20:00,VALID,917.82,VALID,0,VALID,82.1126,VALID,0,VALID,17.6458,VALID,111,VALID,0,
2005-06-22, 02:21:00,VALID,917.844,VALID,0,VALID,82.2143,VALID,0,VALID,17.6976,VALID,111,VALID,0.213728,
2005-06-22, 02:22:00,VALID,917.85,VALID,0,VALID,82.2003,VALID,0,VALID,17.7975,VALID,334,VALID,0.37827,
2005-06-22, 02:23:00,VALID,917.84,VALID,0,VALID,82.0986,VALID,-0.0169808,VALID,17.8035,VALID,327,VALID,0.469638,
2005-06-22, 02:24:00,VALID,917.823,VALID,0,VALID,81.9384,VALID,-0.0169808,VALID,17.8007,VALID,327,VALID,0.268714,
2005-06-22, 02:25:00,VALID,917.81,VALID,0,VALID,82.1876,VALID,0,VALID,17.7168,VALID,327,VALID,0.31059,
2005-06-22, 02:26:00,VALID,917.787,VALID,0,VALID,82.6696,VALID,0.0169808,VALID,17.6103,VALID,327,VALID,0.122093,
2005-06-22, 02:27:00,VALID,917.766,VALID,0,VALID,83.1566,VALID,0,VALID,17.5427,VALID,328,VALID,0.305596,
2005-06-22, 02:28:00,VALID,917.755,VALID,0,VALID,83.4783,VALID,0,VALID,17.4844,VALID,329,VALID,0.179178,
2005-06-22, 02:29:00,VALID,917.783,VALID,0,VALID,83.5279,VALID,-0.0169808,VALID,17.468,VALID,329,VALID,0.0354421,
2005-06-22, 02:30:00,VALID,917.765,VALID,0,VALID,83.5253,VALID,0,VALID,17.5005,VALID,308,VALID,0.472656,
2005-06-22, 02:31:00,VALID,917.74,VALID,0,VALID,83.2685,VALID,0,VALID,17.5519,VALID,286,VALID,0.0520198,
2005-06-22, 02:32:00,VALID,917.715,VALID,0,VALID,83.3575,VALID,-0.0169808,VALID,17.5397,VALID,286,VALID,0,
2005-06-22, 02:33:00,VALID,917.726,VALID,0,VALID,83.3397,VALID,-0.0169808,VALID,17.5231,VALID,286,VALID,0,
2005-06-22, 02:34:00,VALID,917.715,VALID,0,VALID,83.4478,VALID,0,VALID,17.5169,VALID,286,VALID,0,
2005-06-22, 02:35:00,VALID,917.709,VALID,0,VALID,84.6151,VALID,0,VALID,17.5005,VALID,286,VALID,0.0588663,
2005-06-22, 02:36:00,VALID,917.704,VALID,0,VALID,85.1072,VALID,0,VALID,17.5397,VALID,286,VALID,0,
2005-06-22, 02:37:00,VALID,917.701,VALID,0,VALID,85.8104,VALID,-0.0169808,VALID,17.5618,VALID,286,VALID,0.017721,
2005-06-22, 02:38:00,VALID,917.683,VALID,0,VALID,85.7875,VALID,0,VALID,17.6356,VALID,286,VALID,0.335379,
2005-06-22, 02:39:00,VALID,917.685,VALID,0,VALID,85.1327,VALID,-0.0169808,VALID,17.7652,VALID,286,VALID,0.333705,
2005-06-22, 02:40:00,VALID,917.672,VALID,0,VALID,84.7563,VALID,-0.0169808,VALID,17.8844,VALID,296,VALID,0.416159,
2005-06-22, 02:41:00,VALID,917.665,VALID,0,VALID,84.0403,VALID,0,VALID,18.017,VALID,317,VALID,0.44668,
2005-06-22, 02:42:00,VALID,917.672,VALID,0,VALID,83.7237,VALID,-0.0169808,VALID,18.0947,VALID,317,VALID,0.379084,
2005-06-22, 02:43:00,VALID,917.667,VALID,0,VALID,84.0556,VALID,-0.0339617,VALID,18.111,VALID,317,VALID,0.376389,
2005-06-22, 02:44:00,VALID,917.675,VALID,0,VALID,83.7466,VALID,0,VALID,18.0525,VALID,317,VALID,0.0642361,
2005-06-22, 02:45:00,VALID,917.663,VALID,0,VALID,84.9139,VALID,0,VALID,17.943,VALID,317,VALID,0.256771,
2005-06-22, 02:46:00,VALID,917.636,VALID,0,VALID,85.3158,VALID,0,VALID,17.8263,VALID,317,VALID,0.423473,
2005-06-22, 02:47:00,VALID,917.637,VALID,0,VALID,85.5167,VALID,0,VALID,17.7138,VALID,229,VALID,0.580788,
2005-06-22, 02:48:00,VALID,917.619,VALID,0,VALID,85.5599,VALID,-0.0339617,VALID,17.6073,VALID,161,VALID,0.572218,
2005-06-22, 02:49:00,VALID,917.618,VALID,0,VALID,85.5001,VALID,0,VALID,17.53,VALID,161,VALID,0.487165,
2005-06-22, 02:50:00,VALID,917.597,VALID,0,VALID,85.7735,VALID,-0.0169808,VALID,17.4586,VALID,161,VALID,0.456577,
2005-06-22, 02:51:00,VALID,917.586,VALID,0,VALID,86.431,VALID,-0.0339617,VALID,17.4751,VALID,157,VALID,0.398247,
2005-06-22, 02:52:00,VALID,917.598,VALID,0,VALID,86.0953,VALID,0,VALID,17.5167,VALID,157,VALID,0.155678,
2005-06-22, 02:53:00,VALID,917.603,VALID,0,VALID,86.8735,VALID,-0.0339617,VALID,17.501,VALID,157,VALID,0.194141,
2005-06-22, 02:54:00,VALID,917.617,VALID,0,VALID,87.1914,VALID,-0.0339617,VALID,17.465,VALID,157,VALID,0.191406,
2005-06-22, 02:55:00,VALID,917.608,VALID,0,VALID,86.4119,VALID,-0.0509425,VALID,17.4788,VALID,154,VALID,0.157774,
2005-06-22, 02:56:00,VALID,917.608,VALID,0,VALID,86.918,VALID,-0.0169808,VALID,17.498,VALID,132,VALID,0.227983,
2005-06-22, 02:57:00,VALID,917.586,VALID,0,VALID,86.2402,VALID,-0.0169808,VALID,17.5489,VALID,132,VALID,0.0956101,
2005-06-22, 02:58:00,VALID,917.575,VALID,0,VALID,86.6357,VALID,-0.0169808,VALID,17.5849,VALID,132,VALID,0,
2005-06-22, 02:59:00,VALID,917.574,VALID,0,VALID,86.1487,VALID,-0.0169808,VALID,17.6333,VALID,132,VALID,0.0448718,
2005-06-22, 03:00:00,VALID,917.56,VALID,0,VALID,85.7888,VALID,-0.0169808,VALID,17.649,VALID,132,VALID,0.136628,
2005-06-22, 03:01:00,VALID,917.563,VALID,0,VALID,85.9338,VALID,0,VALID,17.6234,VALID,132,VALID,0.205035,
2005-06-22, 03:02:00,VALID,917.561,VALID,0,VALID,85.9236,VALID,0.0679233,VALID,17.6161,VALID,132,VALID,0.156641,
2005-06-22, 03:03:00,VALID,917.572,VALID,0,VALID,85.6324,VALID,0.0509425,VALID,17.629,VALID,132,VALID,0.00334821,
2005-06-22, 03:04:00,VALID,917.564,VALID,0,VALID,85.5167,VALID,0.0169808,VALID,17.6391,VALID,132,VALID,0,
2005-06-22, 03:05:00,VALID,917.574,VALID,0,VALID,85.6235,VALID,0.0339617,VALID,17.6161,VALID,132,VALID,0,
2005-06-22, 03:06:00,VALID,917.58,VALID,0,VALID,85.7392,VALID,0.0509425,VALID,17.5801,VALID,132,VALID,0,
2005-06-22, 03:07:00,VALID,917.573,VALID,0,VALID,85.8498,VALID,0.0509425,VALID,17.5803,VALID,132,VALID,0.318026,
2005-06-22, 03:08:00,VALID,917.573,VALID,0,VALID,85.5701,VALID,0.0679233,VALID,17.587,VALID,132,VALID,0,
2005-06-22, 03:09:00,VALID,917.564,VALID,0,VALID,84.9216,VALID,0.0339617,VALID,17.5838,VALID,115,VALID,0.182594,
2005-06-22, 03:10:00,VALID,917.55,VALID,0,VALID,84.8567,VALID,0.0339617,VALID,17.6096,VALID,90,VALID,0.30506,
2005-06-22, 03:11:00,VALID,917.541,VALID,0,VALID,84.4676,VALID,0.0339617,VALID,17.6907,VALID,95,VALID,0.244048,
2005-06-22, 03:12:00,VALID,917.525,VALID,0,VALID,83.6754,VALID,0.0339617,VALID,17.8358,VALID,211,VALID,0.539426,
2005-06-22, 03:13:00,VALID,917.506,VALID,0,VALID,82.6352,VALID,0,VALID,18.0585,VALID,230,VALID,0.632622,
2005-06-22, 03:14:00,VALID,917.506,VALID,0,VALID,81.754,VALID,0.0339617,VALID,18.239,VALID,235,VALID,0.500572,
2005-06-22, 03:15:00,VALID,917.51,VALID,0,VALID,81.1449,VALID,0.0169808,VALID,18.349,VALID,235,VALID,0.324396,
2005-06-22, 03:16:00,VALID,917.496,VALID,0,VALID,81.0584,VALID,0,VALID,18.3493,VALID,235,VALID,0.253089,
2005-06-22, 03:17:00,VALID,917.495,VALID,0,VALID,80.9402,VALID,-0.0679233,VALID,18.3566,VALID,235,VALID,0.121181,
2005-06-22, 03:18:00,VALID,917.487,VALID,0,VALID,81.0584,VALID,-0.0849042,VALID,18.3278,VALID,235,VALID,0.0510671,
2005-06-22, 03:19:00,VALID,917.496,VALID,0,VALID,81.281,VALID,-0.0679233,VALID,18.2888,VALID,259,VALID,0.151163,
2005-06-22, 03:20:00,VALID,917.5,VALID,0,VALID,81.2517,VALID,-0.0679233,VALID,18.2593,VALID,17,VALID,0.126302,
2005-06-22, 03:21:00,VALID,917.5,VALID,0,VALID,81.5518,VALID,-0.0339617,VALID,18.215,VALID,17,VALID,0.337843,
2005-06-22, 03:22:00,VALID,917.499,VALID,0,VALID,81.782,VALID,-0.0679233,VALID,18.1502,VALID,17,VALID,0.344815,
2005-06-22, 03:23:00,VALID,917.49,VALID,0,VALID,82.2423,VALID,-0.0679233,VALID,18.0988,VALID,17,VALID,0.465588,
2005-06-22, 03:24:00,VALID,917.496,VALID,0,VALID,82.3669,VALID,-0.0509425,VALID,18.0885,VALID,17,VALID,0.228766,
2005-06-22, 03:25:00,VALID,917.504,VALID,0,VALID,81.9371,VALID,-0.0339617,VALID,18.0695,VALID,17,VALID,0.309103,
2005-06-22, 03:26:00,VALID,917.513,VALID,0,VALID,82.5704,VALID,-0.0849042,VALID,17.9499,VALID,17,VALID,0.0965278,
2005-06-22, 03:27:00,VALID,917.514,VALID,0,VALID,83.1248,VALID,-0.0679233,VALID,17.9019,VALID,17,VALID,0.314546,
2005-06-22, 03:28:00,VALID,917.533,VALID,0,VALID,83.4948,VALID,-0.0849042,VALID,17.856,VALID,17,VALID,0.0265625,
2005-06-22, 03:29:00,VALID,917.522,VALID,0,VALID,83.5788,VALID,-0.0509425,VALID,17.8692,VALID,145,VALID,0.457933,
2005-06-22, 03:30:00,VALID,917.517,VALID,0,VALID,82.9569,VALID,-0.0339617,VALID,17.9439,VALID,163,VALID,0.206174,
2005-06-22, 03:31:00,VALID,917.53,VALID,0,VALID,82.9964,VALID,-0.101885,VALID,17.9593,VALID,163,VALID,0.0177083,
2005-06-22, 03:32:00,VALID,917.519,VALID,0,VALID,83.3015,VALID,-0.0509425,VALID,17.9722,VALID,141,VALID,0.210747,
2005-06-22, 03:33:00,VALID,917.532,VALID,0,VALID,82.826,VALID,-0.0169808,VALID,17.9852,VALID,62,VALID,0.549306,
2005-06-22, 03:34:00,VALID,917.538,VALID,0,VALID,83.4618,VALID,-0.0679233,VALID,17.9141,VALID,59,VALID,0.440341,